Theta_e
330 329 327 328 327 328 325 326 305 311 308 300 301 304 302 313 313 310 308 313 308 314 314 316 309 314 310 309 308 309 311 307 309 299 298 310 318 318 317 318 318 321 320 325 327 331 332 335 333 333 332 330 330 329 329 328 328 328 327 327 327 327 327 326 328 329 326 325 327 326 324 325 325 325 322 321 323 323 322 321 320 320 321 323 322 325 324 325 324 322 319 319 320 320 318 316 315
327 330 330 329 326 326 317 322 307 304 304 300 302 306 308 313 311 307 307 307 309 312 311 310 309 312 316 315 311 312 310 311 312 311 318 316 314 316 317 315 315 318 319 323 327 329 329 330 334 332 331 330 329 329 328 328 329 327 327 327 327 326 326 326 324 326 325 326 324 326 323 322 321 322 320 321 322 321 323 321 320 320 319 321 324 324 325 325 323 321 319 319 320 320 318 316 315
326 328 326 330 326 322 323 318 301 302 298 295 301 304 310 307 307 308 310 311 312 314 312 312 313 312 312 314 309 307 301 314 314 315 316 317 314 313 317 320 315 316 319 321 326 326 325 329 334 332 331 330 329 328 328 328 328 327 328 327 327 326 326 326 325 325 325 324 323 323 324 322 322 322 321 320 320 320 321 320 320 320 320 319 324 324 325 324 323 321 320 320 320 320 318 317 315
326 324 325 324 315 322 311 310 304 301 297 298 299 305 308 308 306 311 313 315 311 310 311 311 306 315 311 304 305 308 305 308 311 314 313 309 310 315 316 320 316 314 317 321 325 325 324 331 334 332 330 329 329 328 327 328 327 327 326 326 326 324 325 325 325 325 324 324 325 322 323 321 322 323 321 320 320 320 320 318 319 319 319 320 322 323 324 324 323 320 320 319 321 320 318 316 315
323 327 327 322 317 309 310 306 304 303 297 301 298 308 307 307 308 309 311 312 310 308 308 309 305 312 312 308 308 301 301 309 313 312 312 311 312 313 316 322 317 314 316 317 320 324 324 332 333 333 331 329 328 327 327 327 327 326 326 325 326 325 325 325 324 324 324 324 325 323 322 321 322 321 321 320 321 319 318 318 318 318 319 320 319 320 324 323 322 320 321 319 321 321 318 316 314
322 324 326 323 312 321 311 303 301 300 303 306 302 305 306 308 308 308 308 311 311 306 308 308 303 303 304 305 312 303 311 303 311 311 309 308 312 315 315 322 315 312 314 318 319 324 325 334 332 331 330 329 328 327 326 327 327 327 326 326 326 324 325 324 323 324 324 324 323 323 322 322 321 321 320 319 319 318 317 318 318 318 319 319 320 322 324 322 321 320 319 318 320 320 318 317 314
322 317 322 319 315 317 303 301 300 301 303 308 306 305 304 305 303 305 304 305 309 309 311 306 307 304 302 306 306 309 310 308 308 308 309 310 311 314 317 313 314 313 314 317 319 320 326 333 332 331 330 329 328 327 326 327 327 327 326 326 325 325 324 325 324 324 324 323 324 322 323 323 321 320 320 319 319 318 318 317 319 318 318 319 320 321 321 322 321 319 319 319 320 320 317 315 314
324 314 314 305 304 307 301 301 301 302 303 307 308 301 302 304 305 303 303 300 300 300 308 308 307 302 301 309 301 305 307 308 306 308 309 309 310 311 313 312 311 311 313 316 321 326 327 332 331 331 330 329 328 327 327 326 327 327 326 325 326 325 325 324 324 323 322 323 323 322 322 322 321 320 320 319 318 318 317 317 318 317 319 319 320 320 320 319 319 319 318 319 319 320 318 315 314
319 313 320 309 300 306 300 299 300 305 304 307 300 303 305 304 305 304 301 301 304 301 302 305 305 299 301 302 299 304 303 305 307 310 308 308 308 311 310 310 310 311 312 314 316 327 328 332 331 331 329 328 328 327 327 327 326 326 326 324 325 325 325 325 325 323 322 323 323 322 322 321 321 321 320 319 318 317 317 316 317 318 317 319 319 320 319 319 319 319 318 318 318 321 318 317 314
317 312 304 304 304 294 296 298 298 301 301 298 297 298 299 303 303 304 299 299 298 301 300 301 304 299 300 298 301 299 300 304 305 304 307 307 307 308 309 309 311 312 312 314 315 323 326 326 331 331 329 329 327 326 326 326 327 326 326 325 325 325 324 324 325 323 323 322 322 321 321 321 322 322 321 321 319 317 317 316 316 317 317 319 319 318 319 319 319 318 318 318 318 319 319 318 314
307 311 314 301 297 293 293 294 297 299 297 298 298 300 299 299 302 299 301 299 301 301 299 302 299 297 298 300 298 302 303 302 302 302 305 307 307 307 307 309 310 313 312 314 317 320 325 325 326 331 330 328 327 327 327 326 326 326 326 325 325 324 324 324 325 323 323 323 322 322 321 322 322 322 320 319 319 318 317 316 317 316 316 317 318 319 319 319 319 318 318 318 318 319 319 318 315
304 306 305 295 294 294 296 293 294 297 296 297 296 299 299 300 300 298 299 298 298 299 298 300 297 299 298 299 296 299 300 300 301 303 305 306 306 307 308 308 310 313 314 315 317 318 324 324 323 325 329 329 329 327 327 326 326 326 325 325 325 324 324 325 324 323 323 323 322 322 321 321 321 320 320 319 319 318 317 316 317 316 316 317 317 320 319 320 319 319 319 318 318 318 318 318 315
305 308 301 296 295 296 296 293 294 295 295 293 294 298 300 300 298 299 298 299 299 296 293 297 299 299 293 291 298 298 297 299 301 303 304 306 307 307 308 308 311 314 315 317 316 316 320 322 322 323 324 327 328 327 327 327 327 327 326 325 324 324 324 324 323 323 322 323 323 322 321 321 320 320 319 319 319 318 317 317 317 316 316 317 317 318 319 319 319 319 318 318 318 318 316 317 316
304 306 301 294 298 295 294 296 296 292 291 295 297 300 300 299 299 299 297 295 294 293 295 297 298 298 292 294 294 294 296 300 301 302 304 305 307 307 309 309 313 312 315 314 314 315 316 319 321 321 321 322 321 323 325 326 326 327 326 325 325 324 324 323 323 323 322 322 323 323 323 323 322 320 319 319 319 318 317 316 316 316 316 317 317 317 318 319 319 318 318 317 317 316 315 316 315
303 306 301 297 293 294 297 293 293 291 290 296 297 301 299 301 301 299 297 295 293 297 298 299 297 295 287 290 289 293 296 299 300 302 303 304 305 308 309 309 308 311 310 311 311 313 314 315 317 320 320 320 320 319 318 320 325 325 325 325 325 325 325 323 322 323 323 323 324 323 322 322 322 321 320 320 319 318 317 317 316 317 316 317 317 317 317 318 319 318 316 315 315 315 315 316 314
309 304 300 295 292 292 292 293 292 292 292 296 298 299 299 299 302 299 299 299 295 297 297 292 297 292 293 292 292 295 297 299 300 301 301 302 303 304 304 304 304 305 307 311 310 310 313 313 313 315 319 319 319 318 318 318 322 324 324 324 324 324 324 324 323 323 323 322 321 322 320 319 319 317 321 317 319 320 318 316 316 316 317 317 317 317 317 316 317 316 315 315 314 314 315 314 314
310 307 294 292 290 293 291 291 292 288 292 295 297 297 297 297 302 300 302 299 294 294 294 294 293 296 293 293 296 297 298 299 300 299 299 299 299 299 300 300 301 302 304 303 304 304 305 310 311 312 314 315 317 318 318 318 319 321 322 323 323 323 323 323 323 323 321 320 319 319 318 316 314 312 313 312 317 315 316 317 316 316 316 316 317 317 316 316 316 315 315 315 314 313 314 314 314
307 297 293 291 292 290 294 292 293 294 292 293 295 296 295 294 296 298 300 296 294 293 293 294 295 294 295 296 297 297 297 296 296 296 296 296 297 296 297 298 299 299 300 301 302 303 303 304 304 307 310 312 313 317 319 320 319 320 318 318 318 319 321 321 319 317 317 315 318 318 316 315 312 311 312 314 311 312 313 315 316 315 316 317 317 316 315 315 316 316 315 315 313 313 310 302 305
299 295 294 292 294 294 297 295 294 292 292 294 295 296 295 292 294 296 293 292 292 291 291 291 290 292 293 294 295 295 295 294 293 293 293 294 294 294 295 296 297 297 298 299 300 301 301 302 303 303 304 309 310 311 316 318 316 318 317 317 317 320 317 317 316 316 315 315 315 316 315 314 313 312 312 312 312 314 313 315 315 315 315 316 317 316 315 315 315 315 315 315 314 312 305 300 299
300 297 291 294 296 296 297 296 295 297 295 294 295 294 293 293 294 297 293 290 290 287 287 288 288 288 290 291 292 293 293 292 292 291 291 292 293 293 293 294 294 295 296 298 298 299 300 300 301 302 303 303 307 309 311 310 314 314 316 317 316 316 317 317 316 315 315 315 315 314 314 313 313 312 314 313 313 311 312 315 315 315 315 315 317 314 315 315 315 315 314 314 314 308 301 299 299
301 297 294 295 294 293 295 296 295 295 298 294 295 294 292 292 293 294 293 289 288 288 289 288 287 288 289 290 291 291 291 291 291 291 290 290 291 292 292 293 293 294 296 297 297 297 298 298 299 300 302 302 302 305 306 307 309 309 313 314 315 314 315 315 315 315 313 314 314 314 314 313 313 312 311 311 311 310 308 310 311 310 309 309 313 308 308 309 311 308 309 309 304 302 300 299 298
301 296 296 295 295 292 296 295 294 294 295 295 296 294 290 293 292 291 292 289 285 288 289 290 289 289 289 289 290 290 290 290 290 290 290 290 290 290 291 291 293 293 294 293 294 295 296 297 297 298 300 300 302 302 304 305 307 306 308 310 312 315 316 314 314 313 313 313 313 313 313 313 312 311 311 311 311 310 308 308 308 307 307 307 307 305 305 305 305 305 304 304 302 301 300 299 297
295 297 296 295 295 294 296 295 295 294 295 296 296 293 293 290 289 290 289 288 289 292 292 291 291 291 290 290 290 289 289 289 289 289 290 289 289 290 290 291 291 291 292 292 293 294 295 296 296 297 297 299 300 301 302 303 304 305 306 307 309 310 312 314 314 313 313 313 313 313 313 312 312 311 310 310 310 309 308 308 307 306 306 306 306 304 303 304 305 304 303 303 301 301 301 299 297
298 293 294 295 297 294 295 294 296 295 295 294 296 296 291 290 286 289 287 290 292 293 292 293 292 292 292 290 289 289 289 289 289 290 290 290 290 290 290 291 291 291 291 291 292 292 293 294 295 295 296 297 298 300 300 301 302 304 306 306 306 309 310 311 313 313 313 313 313 313 313 312 310 310 310 310 310 310 308 308 307 306 305 306 306 305 303 301 302 303 302 303 302 300 301 298 297
299 297 297 295 296 294 295 294 294 295 294 295 294 291 290 290 288 289 287 289 290 291 291 292 291 290 290 289 289 289 288 288 288 289 290 290 290 291 291 291 291 291 290 291 291 292 292 294 294 293 294 295 296 298 299 300 301 301 302 303 304 308 307 309 310 313 314 315 314 313 313 312 311 310 310 310 310 309 308 308 308 306 306 305 305 305 304 303 302 302 301 302 302 300 301 298 297
300 297 296 294 294 295 294 295 294 294 295 294 291 290 290 290 291 287 288 289 290 291 290 290 290 289 289 288 288 288 288 288 288 288 289 289 290 289 290 290 290 290 290 291 291 291 292 293 292 293 293 294 295 296 296 297 299 299 300 301 302 304 304 306 308 308 311 313 314 314 315 312 311 310 310 310 309 308 307 307 308 307 306 305 304 304 304 303 302 302 301 301 301 300 300 298 296
301 301 297 293 294 294 295 295 295 295 294 294 291 289 289 291 290 284 289 290 291 290 289 290 289 288 288 288 288 288 287 287 287 288 288 289 288 288 289 289 289 290 291 290 291 291 292 292 292 293 293 294 294 294 295 295 297 298 299 300 301 301 302 304 304 306 307 308 311 313 313 313 312 311 309 310 310 309 308 307 307 307 306 305 304 303 303 303 303 302 301 301 300 299 299 298 295
299 298 298 296 293 295 294 295 294 294 293 293 292 290 290 291 290 285 288 290 291 289 289 289 288 288 287 288 287 287 287 287 287 287 287 287 287 288 288 288 288 289 290 290 290 291 291 291 292 292 292 293 293 293 294 294 295 296 298 298 299 300 302 301 302 303 304 305 308 309 310 312 313 312 312 310 309 309 307 307 306 306 305 305 304 303 302 302 302 302 302 301 299 299 297 295 294
300 299 293 294 293 291 294 293 294 294 291 293 294 289 286 287 285 287 289 290 290 289 288 288 288 288 288 287 287 287 286 287 287 286 287 287 287 288 288 289 289 288 289 290 291 291 291 291 291 291 291 292 291 292 292 293 293 295 295 296 298 300 299 300 300 301 302 303 305 306 307 309 310 310 311 310 308 308 309 307 306 306 305 304 304 302 301 301 301 301 300 301 298 297 295 294 294
303 296 294 295 292 289 293 294 294 292 293 294 293 279 285 285 286 288 290 289 289 288 287 287 287 287 287 287 287 286 287 286 286 286 287 287 287 287 287 288 289 288 288 288 289 290 291 292 292 292 292 291 292 291 293 292 292 293 295 295 296 297 297 298 299 299 300 301 302 303 304 305 307 309 310 310 310 309 308 308 307 306 305 303 302 302 300 300 301 300 299 299 298 296 294 293 292
292 298 297 287 283 284 293 294 292 290 293 293 294 280 283 284 286 288 289 289 288 286 286 286 287 287 287 287 286 286 287 286 286 287 287 288 287 287 287 288 288 288 288 288 288 288 289 290 292 291 292 290 291 290 291 291 292 292 292 293 294 295 296 297 297 298 299 299 301 301 302 303 304 306 307 308 308 309 308 308 308 307 304 302 301 300 300 299 300 299 298 297 296 295 294 292 291
292 287 283 285 281 284 291 296 292 289 292 294 292 281 284 285 286 288 289 288 288 286 286 286 286 286 286 286 285 285 286 287 287 287 287 287 287 286 287 287 287 287 287 287 288 289 288 288 290 290 290 289 290 291 290 291 291 291 292 295 294 293 294 295 296 297 298 297 298 299 300 301 303 304 305 306 306 306 306 307 307 307 305 303 301 298 299 297 298 298 298 297 295 293 292 291 290
289 283 280 280 282 283 288 291 294 294 292 293 292 283 287 285 286 287 289 288 288 286 286 286 286 286 286 285 286 285 285 285 286 286 287 286 287 286 286 286 287 287 287 287 287 287 288 288 289 288 289 290 290 290 290 289 291 291 291 292 293 292 292 293 295 296 297 297 296 297 298 300 301 302 303 304 304 304 304 305 305 304 305 304 301 298 298 297 297 297 296 296 295 293 292 290 289
281 286 280 283 280 284 281 291 293 294 292 287 289 284 286 286 286 286 288 288 287 286 285 286 286 285 285 285 284 284 284 285 284 285 286 286 286 287 287 289 287 287 287 287 287 286 287 287 288 289 289 290 290 289 289 289 290 290 290 291 293 292 292 292 293 294 295 295 295 296 297 298 299 299 300 302 302 303 304 304 304 305 305 304 301 298 297 297 296 296 295 295 294 292 290 290 288
281 281 280 281 284 285 284 283 289 291 292 287 287 285 286 284 285 286 286 288 287 286 285 285 285 285 284 284 284 284 284 284 284 285 287 287 287 287 286 286 286 286 286 286 286 286 286 286 288 287 289 288 289 289 288 289 289 289 289 290 290 290 291 292 292 292 293 295 295 295 296 297 297 298 299 300 300 301 301 302 302 303 303 304 301 298 296 296 295 295 294 293 293 292 291 290 289
285 285 282 283 281 281 282 286 290 291 287 285 284 282 285 285 284 285 286 287 286 286 285 284 284 284 284 284 284 283 284 284 286 287 288 287 287 287 286 286 286 286 286 286 287 286 286 286 286 287 287 288 288 288 288 287 287 287 287 288 287 288 289 290 291 291 292 293 295 295 295 295 296 296 297 298 299 299 299 300 300 301 302 302 300 298 296 295 294 293 293 292 291 291 290 289 288
288 287 285 282 281 283 286 286 288 293 286 284 284 285 285 286 285 285 285 286 285 285 284 284 283 283 283 283 283 283 283 284 288 287 287 287 287 286 286 286 286 286 286 286 285 285 285 285 285 285 287 287 287 287 286 286 285 285 285 285 285 287 288 289 290 291 291 292 293 294 295 296 296 296 296 296 296 297 297 298 299 299 300 300 300 299 298 296 295 294 293 292 291 289 288 288 288
288 286 283 279 282 279 284 284 290 293 286 283 286 286 286 287 286 285 285 284 283 284 284 283 283 283 283 283 283 283 283 286 286 285 286 286 286 286 286 285 286 284 285 285 284 284 285 285 285 285 286 287 287 287 286 286 286 285 284 284 285 285 286 286 287 289 290 292 293 293 294 295 296 295 295 296 295 296 297 298 297 297 298 298 299 299 299 297 296 295 293 291 291 289 287 288 287
287 284 281 278 280 283 285 286 289 288 286 283 285 284 285 286 287 285 284 284 284 285 284 283 283 282 282 282 283 283 283 283 284 285 285 285 286 285 285 285 284 284 284 284 284 284 284 285 285 285 286 286 287 287 287 286 286 287 286 286 286 285 287 288 287 289 290 290 291 292 293 294 295 295 295 295 295 295 295 296 297 298 298 298 297 297 298 297 296 294 293 291 289 289 288 288 287
285 282 279 277 281 279 276 283 286 287 285 282 284 282 284 287 288 285 285 285 284 285 285 285 284 282 282 282 283 282 283 283 283 284 284 284 284 284 284 284 284 284 284 284 284 284 285 285 285 285 285 286 286 287 289 287 287 287 287 287 287 287 286 287 288 288 288 289 290 292 294 294 294 293 294 294 294 294 294 294 294 295 296 298 297 296 296 296 296 294 293 292 291 287 287 286 288
284 284 281 279 279 280 280 280 284 286 286 287 283 282 283 285 282 282 284 285 284 284 284 284 284 285 284 285 285 284 283 283 282 282 283 284 284 284 284 284 284 283 283 283 284 284 285 284 285 285 285 285 286 287 287 286 286 285 286 286 286 286 286 285 285 284 286 287 289 290 291 294 294 293 293 293 293 293 293 294 294 294 294 295 296 295 295 295 295 295 294 292 291 289 287 285 287
280 284 282 282 282 281 282 283 282 280 279 286 284 275 276 280 283 282 282 282 281 283 282 282 283 283 283 282 282 283 283 282 282 281 281 282 282 282 283 283 283 283 283 284 284 284 284 285 285 285 285 285 286 286 286 286 285 284 284 283 282 283 282 283 283 283 284 285 286 288 289 290 291 294 293 293 293 292 292 293 292 292 293 294 294 295 295 295 294 294 294 293 291 291 289 286 285
278 281 284 283 282 282 282 281 280 275 273 280 286 274 272 280 280 281 280 280 281 282 282 282 282 282 282 282 282 282 282 281 281 281 281 281 281 281 281 282 282 282 283 284 284 284 285 285 285 285 285 285 287 287 287 287 285 284 284 283 283 283 282 283 285 286 286 286 287 287 288 289 290 290 290 293 292 292 292 292 292 292 292 293 293 293 293 293 294 293 293 292 291 291 290 286 285
277 283 284 283 283 281 281 281 280 278 282 284 284 281 274 273 279 281 281 280 280 280 281 281 281 282 281 282 281 280 281 281 280 280 280 280 280 280 280 281 282 282 283 284 284 284 284 284 284 285 285 286 286 287 287 287 285 284 283 283 284 283 283 283 285 285 287 287 287 287 287 288 289 290 290 290 290 292 292 292 292 291 291 291 292 292 292 293 293 293 293 293 292 291 290 288 286
281 285 285 283 283 282 282 281 280 280 277 275 278 280 274 273 278 281 281 279 278 279 280 280 281 281 281 280 280 280 280 280 280 280 280 279 280 280 281 281 282 283 283 283 284 284 284 284 284 284 285 285 286 287 287 287 286 285 283 283 283 284 284 284 285 286 286 286 286 287 287 288 289 289 289 289 290 290 291 291 291 291 291 291 291 291 292 292 292 291 291 291 291 291 290 289 288
285 287 287 285 284 283 282 280 279 278 275 271 275 278 271 271 277 279 279 278 277 278 279 280 280 280 280 280 281 280 280 280 280 280 280 280 280 280 281 282 282 283 283 284 284 284 284 284 284 284 284 285 286 286 286 286 286 285 283 283 283 283 284 284 284 284 285 285 285 286 286 287 288 289 289 289 289 290 291 291 290 290 291 291 291 291 291 291 292 291 291 291 291 290 290 289 289
289 288 284 282 281 280 279 281 279 275 270 272 276 277 275 268 275 276 277 276 274 277 278 278 279 279 280 280 279 279 279 279 279 279 279 279 280 281 281 281 282 283 283 284 284 284 284 284 284 284 284 285 285 285 286 285 285 284 283 283 283 283 284 284 283 283 284 284 284 285 285 286 287 288 288 288 289 289 289 290 290 289 290 290 290 291 291 291 291 291 291 291 291 290 290 289 289
287 281 279 279 277 278 276 276 276 269 268 274 276 276 277 267 273 276 276 276 276 276 274 276 277 279 280 278 278 279 279 278 278 278 278 279 279 280 281 280 281 282 282 283 283 284 284 284 284 283 284 284 284 285 285 285 285 284 283 283 283 283 284 284 283 283 284 283 284 284 285 286 286 287 287 288 288 288 289 289 289 289 289 289 289 290 291 291 291 291 291 290 289 290 290 290 289
283 280 279 272 270 272 268 272 267 268 267 274 276 277 272 273 276 277 279 278 278 277 279 278 278 278 278 278 278 279 278 278 278 278 278 278 278 279 279 280 280 281 281 282 283 283 283 283 283 282 282 283 283 284 284 284 284 283 283 283 283 284 284 284 284 284 284 284 284 284 285 285 285 285 286 287 287 287 288 288 288 288 288 288 289 289 289 290 291 291 290 290 289 288 288 288 287
281 277 275 270 266 265 263 266 269 269 273 277 275 277 271 275 277 278 279 279 280 279 279 280 279 279 278 278 278 278 278 277 277 278 278 278 278 279 279 280 280 280 281 281 282 282 282 282 282 282 282 283 283 284 284 283 283 282 282 283 283 283 283 284 284 284 284 284 285 284 284 285 285 285 285 286 287 288 288 288 288 288 288 288 288 288 288 289 289 290 289 289 289 289 289 288 287
278 280 276 271 269 265 261 265 263 265 268 272 276 270 267 269 273 280 280 281 282 280 280 280 280 279 278 277 277 277 277 277 277 277 278 278 278 278 279 280 280 280 281 281 282 282 282 282 282 281 281 282 283 283 282 282 282 282 282 283 283 283 284 284 284 284 284 284 284 284 284 285 285 285 285 286 288 287 288 288 287 287 288 288 288 287 288 288 288 288 288 288 288 288 288 288 287
280 280 280 273 270 274 266 269 268 268 268 267 269 269 273 273 279 281 280 281 281 280 279 278 277 277 277 276 276 276 276 277 277 277 278 278 278 279 279 279 279 280 281 281 281 281 281 281 280 280 280 281 281 281 281 281 281 281 282 282 283 283 284 284 284 284 284 284 284 284 284 285 285 285 286 286 286 286 286 285 286 287 287 287 287 287 286 286 286 286 286 286 286 287 286 286 286
278 278 271 274 279 275 271 273 274 272 269 266 272 272 274 278 280 279 280 279 279 278 278 277 276 276 275 275 275 276 276 276 276 277 277 277 278 278 279 279 279 280 280 280 280 280 280 280 280 280 280 281 280 281 280 280 280 280 280 281 281 282 282 282 282 283 283 284 284 284 284 285 285 285 285 286 285 285 286 286 285 285 286 286 286 286 286 286 285 285 285 285 285 286 285 285 286
278 272 275 281 282 278 271 265 267 266 263 265 271 267 268 270 266 276 277 275 276 276 276 276 275 275 274 275 275 275 275 276 277 277 277 277 278 278 278 279 279 280 280 280 279 280 280 280 280 280 280 279 279 279 279 279 279 279 280 280 280 281 281 282 283 283 284 284 284 284 284 284 284 285 285 286 285 285 286 286 286 285 286 286 286 287 286 286 285 285 285 285 286 286 285 285 285
280 277 281 274 265 266 273 267 262 261 262 264 267 268 269 270 269 274 273 273 273 274 274 274 273 274 274 274 275 275 276 276 276 276 276 277 277 277 278 278 279 280 280 279 279 280 280 280 280 280 279 279 278 278 278 278 278 278 278 278 279 279 280 281 282 284 284 283 283 283 283 284 285 285 284 284 284 283 284 285 285 285 286 286 286 286 286 286 286 285 285 284 285 285 285 285 285
283 283 278 280 275 270 267 268 268 268 263 262 262 266 264 272 271 274 272 273 273 273 273 272 273 273 274 274 274 274 275 275 275 275 276 277 277 277 278 278 279 279 279 279 279 280 280 280 280 280 279 278 277 277 277 277 277 277 277 277 278 279 280 281 282 282 282 283 283 283 283 283 283 284 284 284 283 283 283 284 284 284 284 285 286 286 286 286 286 285 284 284 284 285 284 284 285
275 275 274 276 274 276 273 271 268 266 263 262 262 261 265 272 276 274 273 274 273 273 272 272 273 274 274 274 274 274 275 275 275 275 276 276 277 277 278 279 279 279 279 278 278 279 280 280 279 278 276 276 276 276 276 276 277 276 277 277 277 278 279 280 281 282 282 282 282 283 283 284 283 283 283 283 284 284 284 284 284 284 285 285 285 286 286 286 285 285 285 284 284 284 284 284 284
276 275 273 274 270 267 265 264 272 269 265 262 261 260 267 274 278 275 275 274 274 273 273 272 273 273 273 274 274 274 274 275 275 275 276 276 277 277 278 279 279 278 277 277 278 279 279 279 278 277 277 276 275 275 275 275 275 276 276 277 276 276 277 280 280 281 281 281 282 283 283 284 283 283 283 283 283 284 284 284 284 284 284 285 285 285 285 285 285 284 284 284 284 284 284 284 284
Wind_Speed
8 6 6 6 6 4 2 1 4 2 1 7 7 6 3 2 5 7 8 9 2 1 3 1 3 2 2 1 2 3 4 3 3 4 3 1 1 1 5 1 1 1 3 6 8 9 9 11 16 16 15 15 14 13 12 12 12 12 12 12 12 11 13 12 14 14 12 13 12 11 10 12 12 12 9 8 10 10 7 8 7 9 8 10 10 10 9 11 11 8 8 7 8 8 9 7 7
7 7 7 5 4 2 3 2 2 4 3 6 8 6 5 4 5 2 2 7 3 1 1 2 0 4 2 2 3 1 5 7 4 4 1 4 5 3 3 3 3 2 2 5 8 8 8 8 15 15 15 14 14 13 13 12 12 12 12 12 12 11 12 13 11 13 12 13 11 13 11 10 10 11 9 10 11 10 12 10 9 8 8 10 12 10 11 11 9 8 8 8 10 8 9 8 8
6 8 4 3 3 4 1 3 4 3 5 7 6 2 5 9 5 4 3 3 3 1 1 2 0 0 1 4 3 1 2 4 2 5 2 5 3 6 5 4 3 4 0 3 8 7 6 6 12 14 14 13 13 13 13 12 12 12 12 12 11 11 12 14 11 12 13 11 11 12 12 10 9 10 11 10 10 10 11 9 9 10 9 8 10 10 11 10 10 10 10 9 10 10 9 9 7
5 7 5 3 2 3 2 2 5 6 7 5 6 2 6 9 4 4 3 2 4 2 1 2 2 0 0 2 3 4 4 1 5 3 2 9 7 5 5 4 4 3 1 1 5 6 4 8 11 13 11 13 13 13 12 12 11 12 12 11 12 13 12 13 13 13 13 12 13 11 12 10 11 11 11 11 11 10 9 9 9 9 9 11 9 10 11 10 9 9 10 9 12 9 9 9 7
5 4 5 3 3 3 2 3 4 3 8 4 5 2 7 9 8 4 3 2 4 4 2 1 0 0 2 2 1 1 3 4 5 11 4 5 6 5 4 3 1 2 3 2 2 7 5 11 12 11 11 12 12 12 12 11 11 11 11 12 13 12 14 14 13 11 12 12 13 12 11 11 12 11 11 11 11 11 9 9 10 8 11 10 8 10 11 11 10 9 11 10 12 11 10 10 7
6 5 4 2 3 2 2 4 4 8 8 6 8 4 3 5 4 4 3 3 5 7 3 4 2 3 2 2 3 2 4 2 4 6 6 7 9 8 7 2 2 3 1 0 1 6 7 14 16 13 13 12 12 11 12 12 11 11 12 12 13 12 13 13 13 12 13 12 11 13 12 13 12 11 12 11 11 9 9 11 9 9 12 11 11 12 12 11 10 10 11 10 10 11 10 11 9
3 4 2 3 3 2 4 6 8 6 5 3 3 3 7 7 6 4 4 2 2 4 2 4 2 0 1 2 2 9 15 12 5 6 9 6 7 6 4 6 3 3 2 0 1 2 7 18 18 14 13 13 13 13 12 12 12 11 12 12 12 12 13 12 12 13 14 12 13 12 13 13 12 12 12 11 11 11 12 11 11 11 12 11 12 11 12 11 11 11 10 10 11 10 11 9 8
3 3 3 4 3 3 5 6 8 5 3 4 5 9 8 5 4 3 4 4 3 2 3 2 4 1 2 3 2 12 18 15 12 13 9 7 8 8 4 4 6 4 2 0 0 5 13 18 18 15 15 14 14 14 13 12 12 12 12 12 12 12 13 13 13 13 11 13 13 13 14 13 12 13 13 13 11 11 12 11 12 12 12 11 12 11 12 11 11 10 9 10 10 10 10 9 9
2 2 2 2 5 2 5 6 7 7 9 2 12 11 7 5 4 3 5 6 4 4 7 3 4 2 3 6 4 8 14 18 13 11 12 11 8 6 5 4 3 6 3 1 0 7 8 11 15 16 14 14 14 13 13 13 12 12 12 12 13 13 13 13 14 12 12 13 14 14 14 13 13 14 13 13 13 13 13 13 13 12 12 12 11 12 11 11 10 9 10 10 11 12 10 11 9
2 1 2 2 2 5 5 7 8 7 0 13 10 9 8 5 5 4 8 6 7 5 9 12 1 3 5 4 4 13 10 15 15 16 13 11 9 8 7 7 5 5 6 3 2 6 6 8 11 12 14 14 14 13 13 13 13 13 13 13 13 13 13 13 13 13 13 12 13 13 14 14 15 15 15 15 14 13 13 12 12 13 14 13 13 14 11 11 11 11 11 11 11 12 12 11 10
2 3 1 2 3 5 5 6 2 4 10 7 10 10 8 7 6 7 5 5 5 4 10 9 6 8 5 2 8 7 13 18 20 18 16 10 9 9 6 6 6 5 7 4 2 5 6 4 8 9 10 12 13 13 13 12 12 12 12 12 13 14 14 13 13 14 13 13 13 14 14 14 15 16 15 15 14 15 15 14 16 13 14 13 14 13 12 12 12 12 11 12 12 11 11 12 10
3 3 3 3 4 4 3 4 5 3 11 7 8 8 6 6 6 6 6 5 8 7 10 9 3 6 2 4 4 12 20 24 17 15 16 8 5 7 7 6 7 9 9 9 3 1 7 4 1 3 7 9 9 11 12 12 13 12 12 12 13 14 13 13 13 14 13 13 14 14 14 15 15 15 15 16 15 16 15 15 16 14 14 14 14 15 14 14 13 13 13 13 12 12 12 13 12
4 3 3 3 4 4 4 4 3 4 4 7 6 7 6 4 8 6 5 4 8 10 12 14 10 8 5 8 3 11 20 19 17 15 14 13 2 3 4 6 7 5 5 6 9 3 3 6 4 1 2 4 5 6 8 9 10 10 13 14 14 13 14 13 13 14 13 15 15 14 14 13 13 14 15 14 15 16 15 15 15 14 14 15 15 14 15 14 14 14 14 14 14 14 11 13 14
3 3 3 4 5 5 4 1 1 3 4 2 3 5 8 6 7 6 4 8 13 11 9 14 11 10 9 9 10 14 13 16 16 15 10 12 5 2 5 4 3 3 4 4 4 4 4 3 4 3 3 2 1 3 4 6 7 8 10 11 11 13 13 14 14 15 13 14 14 14 15 14 14 14 15 16 16 16 15 16 15 15 16 15 15 15 15 15 15 14 14 15 14 13 12 13 12
3 3 2 3 4 6 2 0 2 3 3 2 1 1 7 9 8 5 7 5 11 10 6 16 9 5 5 9 7 11 15 18 16 15 11 9 14 8 6 7 4 5 3 4 3 3 5 2 3 6 4 4 4 3 3 4 7 8 9 9 9 10 11 13 14 15 14 12 12 12 9 6 12 16 15 17 18 16 17 14 16 16 17 16 15 16 15 15 16 15 15 13 13 14 10 14 14
2 3 2 2 4 5 4 3 8 3 2 6 5 6 4 9 5 4 3 7 5 11 14 9 12 7 7 9 8 10 12 13 14 13 11 12 10 9 11 14 13 14 10 4 5 3 1 4 4 1 5 5 6 5 5 5 7 8 8 8 9 8 10 10 12 12 11 10 12 7 9 3 6 9 10 11 13 16 15 12 16 17 17 16 16 16 16 16 16 15 13 14 14 14 13 12 13
1 2 3 3 6 1 4 3 5 2 8 7 9 6 4 4 2 6 8 12 13 9 12 11 10 8 9 8 8 8 9 11 12 13 11 11 10 9 10 10 10 11 9 12 13 14 16 8 4 4 3 3 4 5 4 6 7 11 8 8 9 9 8 10 10 11 11 7 8 5 8 3 3 4 5 3 12 7 13 14 15 18 18 17 16 16 16 16 15 14 14 14 15 13 11 12 13
1 2 3 3 3 4 3 4 3 2 4 6 7 7 5 2 5 2 6 10 11 10 9 9 9 10 9 7 7 8 9 11 13 14 13 11 9 9 10 10 11 10 10 10 12 14 12 11 15 13 5 5 2 4 3 3 3 10 8 7 5 6 7 7 6 5 7 4 8 5 5 5 4 3 4 6 5 7 7 14 16 18 19 18 17 16 15 15 14 14 14 16 14 14 12 7 4
3 3 4 1 2 1 1 3 4 3 3 4 4 7 5 5 4 3 3 5 6 8 8 7 9 9 8 8 8 9 9 11 13 14 14 14 12 13 11 9 10 10 11 11 11 13 11 11 12 13 16 8 8 5 2 3 1 4 5 6 5 7 5 5 4 5 5 5 5 5 6 5 6 5 6 6 5 9 6 13 14 17 20 20 20 17 16 18 17 17 17 17 17 12 8 6 4
3 1 2 2 3 5 6 6 3 2 3 4 3 8 8 3 2 5 5 6 9 8 4 4 6 9 8 8 8 8 9 10 12 13 14 14 12 12 12 12 10 9 9 9 9 9 12 12 12 12 13 16 10 6 5 6 2 3 5 5 5 6 7 6 5 5 6 6 6 5 6 6 6 6 8 12 11 7 7 12 16 17 18 19 13 13 15 16 19 19 18 18 12 7 6 7 6
1 2 1 2 3 2 5 5 3 2 2 5 3 9 8 6 5 5 9 10 7 7 6 5 6 7 7 7 8 7 9 9 11 13 14 14 13 10 10 10 9 9 8 7 7 10 12 12 12 11 13 11 13 10 7 7 7 5 3 3 5 5 5 7 6 7 6 7 8 6 6 6 7 7 7 7 8 8 6 7 9 10 10 10 10 9 8 8 11 7 9 11 5 7 7 7 7
2 2 1 2 3 2 5 6 4 3 3 4 1 2 7 7 10 7 7 5 3 3 6 4 5 7 7 7 7 7 9 10 10 11 13 13 14 12 10 8 9 7 7 8 9 10 11 11 12 10 11 12 10 10 10 6 8 6 7 6 3 5 5 5 6 7 7 8 7 7 7 7 8 8 9 8 8 9 8 7 7 8 9 10 5 7 8 7 6 6 6 7 6 6 7 6 6
2 1 1 1 2 3 3 6 2 3 3 1 2 5 6 7 7 7 8 7 7 5 5 4 5 5 6 5 6 8 9 10 10 10 10 11 12 11 10 9 9 9 7 8 7 8 9 10 11 11 11 11 12 11 9 10 5 5 6 7 6 5 4 6 5 5 7 8 8 8 7 8 9 9 9 8 10 9 9 7 8 7 8 9 7 6 7 8 9 8 6 7 7 6 7 6 6
3 2 2 2 1 3 3 5 2 1 2 1 4 5 7 6 6 4 8 6 5 4 4 5 4 5 4 6 7 8 9 9 10 9 9 8 10 11 9 9 8 6 7 8 8 7 9 11 10 11 10 11 10 10 10 8 10 9 6 6 7 7 6 4 5 6 5 7 9 8 9 9 8 9 9 8 9 10 10 8 8 8 7 8 7 6 6 6 9 9 8 8 8 7 9 7 7
1 2 1 2 1 2 4 3 1 2 3 2 3 3 3 5 7 5 7 6 5 6 6 4 4 5 5 6 6 7 8 8 9 8 8 7 8 8 9 8 7 6 8 9 7 7 7 10 11 10 10 10 9 10 9 9 8 9 9 9 7 7 6 6 5 5 7 5 6 7 10 10 9 9 9 9 7 10 9 9 9 9 9 8 7 8 7 8 8 8 8 9 9 8 9 7 8
3 3 0 1 2 2 4 5 3 1 1 3 3 4 5 10 10 7 6 4 4 5 3 4 4 4 5 6 7 7 7 7 7 8 7 5 7 9 9 8 7 7 8 8 8 8 6 7 10 9 11 9 9 8 8 8 8 7 8 9 9 8 7 7 6 5 5 7 9 9 9 8 9 8 9 9 9 9 9 9 8 9 10 9 9 9 9 8 9 9 8 8 11 10 10 9 9
3 0 2 2 1 2 2 3 5 2 1 1 2 6 8 7 3 2 3 3 3 4 4 3 3 5 6 5 4 5 7 7 7 6 7 5 6 8 8 6 7 6 6 7 7 7 7 6 7 8 9 8 8 7 8 8 8 8 7 7 7 8 8 8 7 6 6 4 6 8 10 10 11 7 6 7 6 6 10 10 9 8 9 10 10 9 9 9 8 9 10 9 9 10 10 9 9
2 0 3 1 2 1 3 2 3 4 1 2 2 3 2 1 0 3 6 4 3 3 5 3 3 3 3 5 5 5 5 5 4 5 7 7 6 5 6 6 7 7 5 7 5 6 7 6 6 7 8 8 8 7 6 7 7 8 8 7 6 7 8 8 7 7 6 6 6 4 5 8 10 9 10 6 7 6 6 9 10 9 9 9 10 10 10 9 8 8 8 7 6 8 8 8 8
0 1 2 5 3 3 1 1 1 1 2 2 0 2 5 4 4 5 4 3 4 4 4 3 4 3 3 4 5 4 3 4 4 4 5 5 4 4 5 6 6 5 4 5 6 7 8 6 4 6 6 7 7 7 6 5 7 6 6 7 7 6 7 7 7 7 7 7 7 6 6 4 5 6 10 11 6 5 7 7 9 10 9 9 9 10 11 10 8 7 7 7 7 7 7 7 7
1 2 3 5 5 4 4 4 1 3 2 3 3 3 1 5 5 5 4 5 6 5 3 3 3 3 1 3 4 4 4 4 4 4 4 4 5 4 5 7 6 5 5 4 5 5 6 5 4 5 5 7 7 6 5 5 6 7 6 5 6 7 6 6 7 7 7 7 7 7 6 7 6 5 7 9 11 10 5 7 7 8 9 8 8 8 9 9 9 9 8 8 8 9 10 9 9
2 2 2 1 6 1 4 1 2 1 4 4 1 2 3 7 7 6 5 5 7 4 4 3 3 2 3 2 3 3 4 3 5 5 5 5 4 4 4 5 6 5 5 5 7 8 6 5 4 5 4 5 6 5 5 4 4 6 6 6 5 5 7 7 7 6 7 7 7 7 7 6 7 7 5 5 6 8 9 8 8 7 6 7 8 8 9 8 9 10 8 9 8 8 9 8 10
3 3 2 3 4 6 1 2 3 1 1 2 2 4 5 8 7 8 6 5 6 4 4 3 2 3 2 2 3 3 3 4 4 5 5 4 5 5 5 5 6 6 7 7 6 6 7 7 5 4 4 5 6 5 5 5 4 5 6 6 6 4 5 7 7 6 6 6 6 7 7 8 7 7 6 5 5 5 7 8 9 9 8 7 7 7 8 8 8 8 9 10 10 9 10 9 9
4 5 2 4 5 5 5 4 3 3 3 0 0 5 5 4 8 8 7 7 7 5 5 4 5 3 2 3 1 2 3 3 3 4 5 4 3 4 4 4 6 7 7 8 9 10 10 8 8 7 7 7 6 5 5 5 5 4 6 6 6 4 5 6 6 7 7 6 6 6 6 7 6 7 7 6 5 6 6 5 6 6 8 9 8 7 9 8 9 9 8 10 11 11 11 11 9
3 3 3 3 5 7 4 3 4 2 3 5 3 5 7 2 11 9 8 8 7 5 4 4 3 1 3 1 3 2 2 2 3 3 4 4 4 5 6 5 5 6 5 6 7 9 10 8 6 5 7 7 6 6 4 5 4 5 5 6 4 6 6 6 6 7 6 7 7 6 6 6 6 6 6 6 5 5 6 6 5 6 7 8 9 9 10 9 9 10 10 10 11 10 10 11 10
5 5 4 5 5 6 8 5 3 4 3 6 9 7 7 8 8 8 9 9 7 6 5 4 3 3 2 3 2 2 1 2 3 3 4 4 5 4 4 4 4 5 6 8 10 10 9 8 8 7 7 9 7 5 4 5 4 4 5 6 5 5 6 7 6 6 6 6 7 5 5 5 5 6 6 6 6 6 5 6 7 7 6 7 8 9 9 10 10 10 12 11 10 11 11 11 11
5 6 5 6 6 7 7 8 5 3 4 7 9 6 7 7 9 8 8 8 7 5 4 3 3 3 2 2 2 2 2 2 2 3 3 4 4 5 5 5 5 6 6 8 9 9 10 10 9 9 9 8 6 6 5 4 3 3 5 4 5 5 6 7 6 6 6 6 7 5 4 5 5 6 7 7 6 5 6 7 7 7 8 7 8 10 10 10 11 10 11 11 12 9 8 8 7
6 6 5 4 7 7 8 10 7 1 4 7 8 9 9 7 11 10 9 8 6 6 6 4 3 2 3 1 2 2 2 3 2 4 4 6 7 7 6 6 7 8 7 10 10 10 10 11 12 12 9 8 6 5 5 4 3 3 3 3 4 4 6 8 8 6 7 7 7 5 5 5 6 6 6 6 7 7 6 6 8 8 8 9 9 10 10 11 11 10 10 9 13 12 10 9 9
5 5 5 4 6 10 11 15 5 2 3 9 12 11 11 12 5 12 11 8 9 8 6 4 3 3 2 3 1 1 3 3 4 6 7 7 7 8 8 6 6 9 10 10 12 13 12 12 11 11 10 9 8 6 5 5 4 3 4 5 6 5 4 5 7 7 7 9 7 5 4 5 5 5 5 6 6 6 6 6 6 7 7 8 9 8 9 10 11 11 10 9 9 14 10 11 10
5 4 2 5 8 11 12 9 5 7 7 12 13 13 12 9 3 11 11 9 5 5 4 3 4 2 2 3 2 3 3 4 6 8 9 10 10 9 7 7 7 8 10 12 12 12 12 12 10 10 10 10 8 6 5 4 4 5 7 8 9 7 5 6 5 6 8 11 12 10 7 7 6 5 5 4 6 6 6 6 6 6 6 7 8 9 8 10 10 12 12 11 9 8 8 8 13
5 3 6 6 9 9 13 12 6 9 6 9 16 15 12 11 6 8 5 5 4 6 6 4 3 3 3 2 2 3 4 6 8 10 10 9 9 9 9 9 8 7 10 11 11 12 11 10 12 13 11 10 8 6 5 5 5 6 6 8 10 11 9 5 6 6 5 8 11 12 11 7 6 7 6 6 5 5 6 7 7 7 7 6 8 9 9 9 9 9 10 12 11 9 9 10 13
5 4 5 9 12 12 7 14 16 13 9 11 10 9 8 7 6 4 5 4 8 6 5 4 4 2 4 1 2 4 6 8 11 12 12 11 12 11 11 11 10 12 13 13 13 12 10 12 13 13 12 11 9 8 8 6 5 5 6 8 9 11 9 7 5 5 4 5 10 11 6 3 7 6 6 6 6 6 6 5 5 6 8 8 7 8 9 8 9 9 9 10 12 12 11 7 9
8 2 5 10 15 17 16 14 13 10 9 1 1 4 6 4 3 6 6 5 6 5 4 4 1 4 3 4 5 5 7 6 8 11 14 14 14 14 14 15 17 17 16 14 12 11 10 10 11 12 11 11 10 9 8 4 5 7 8 9 9 8 9 8 8 8 7 5 7 9 12 11 6 5 6 6 6 6 6 7 7 7 8 8 8 8 8 7 8 8 8 9 11 11 11 8 9
5 4 9 12 17 15 16 15 8 7 5 7 2 2 8 7 8 2 7 7 5 5 3 3 4 3 4 4 4 5 9 9 8 10 12 14 15 17 18 18 17 17 16 13 12 13 13 12 10 11 11 10 10 10 9 5 6 6 8 10 11 11 11 9 9 9 8 7 5 7 8 9 10 12 7 6 7 7 7 7 7 7 8 8 8 8 9 9 7 6 5 7 8 9 9 10 13
4 5 9 13 17 17 18 15 8 9 6 8 12 1 7 14 11 4 10 7 7 5 5 4 3 3 4 5 8 10 12 11 11 11 14 16 18 20 20 19 17 17 15 13 13 12 14 14 14 12 10 10 9 10 9 7 6 7 9 11 11 11 10 12 12 10 10 8 9 10 8 7 9 9 11 11 6 6 7 7 7 8 8 9 8 8 9 8 6 7 6 6 7 8 10 11 11
7 6 8 14 17 17 17 10 9 8 4 8 4 10 10 11 12 3 8 6 7 5 5 5 5 6 7 7 6 9 9 11 11 15 18 18 19 18 18 17 17 17 16 14 13 13 12 12 12 12 13 12 10 11 10 9 9 10 10 10 12 11 11 10 10 10 10 10 11 10 9 9 8 8 9 9 9 10 8 7 7 8 8 8 8 9 10 9 8 6 8 8 9 9 10 10 10
4 8 10 9 14 15 16 8 7 6 0 6 6 14 10 12 14 13 3 1 4 6 7 5 6 8 7 9 10 11 15 14 15 16 15 17 18 19 17 16 17 16 15 14 14 13 13 13 13 14 14 12 11 11 10 10 10 10 11 11 14 14 12 11 10 11 11 10 11 11 10 9 7 7 8 8 9 9 7 6 6 7 8 9 8 9 10 10 10 9 9 9 7 9 9 10 10
9 9 10 11 11 8 7 3 1 4 3 3 8 13 8 12 12 5 2 1 1 5 5 5 4 4 8 7 12 12 12 13 15 17 16 17 18 18 16 16 16 16 15 15 14 14 14 14 14 16 16 15 14 13 12 11 10 11 12 13 15 16 16 14 12 12 10 11 11 10 9 8 7 8 7 8 9 9 10 8 6 6 6 6 6 9 10 10 10 9 9 9 9 9 8 9 10
6 4 10 13 6 5 3 5 5 3 8 4 13 14 14 12 5 4 1 2 4 5 4 4 3 9 12 7 11 14 11 15 17 17 19 21 20 17 16 16 16 16 15 15 14 15 13 13 14 17 18 19 19 17 13 14 14 15 14 14 14 14 15 13 14 14 13 12 12 12 10 9 8 6 7 7 8 8 9 9 8 7 6 6 7 6 7 8 9 10 9 9 9 9 10 10 9
7 7 8 10 9 6 7 6 8 6 10 12 14 17 10 6 8 3 6 4 3 3 3 2 9 13 13 11 15 14 12 17 18 20 21 19 17 18 18 17 15 14 15 16 17 16 15 14 16 16 17 16 14 14 15 15 15 15 12 13 13 13 14 14 13 14 12 11 11 11 10 9 8 6 5 7 8 9 9 10 10 9 7 6 6 6 6 8 8 8 9 11 11 10 9 9 9
7 9 8 8 9 6 6 6 4 7 12 13 13 12 12 8 5 4 6 4 6 4 1 7 10 13 15 14 12 14 16 19 21 21 19 17 17 18 18 16 15 14 15 16 16 14 14 13 14 14 15 14 13 12 12 13 14 13 12 12 13 13 13 13 12 13 12 11 10 11 10 9 9 9 8 8 8 9 9 8 9 10 9 8 7 7 6 5 5 6 9 9 11 11 11 11 11
2 5 3 3 3 1 5 3 8 11 14 17 13 6 1 12 1 0 5 6 4 4 4 13 16 16 16 13 15 19 22 22 20 18 18 19 19 19 18 17 16 14 14 14 12 13 14 13 13 15 14 14 13 13 13 15 14 14 13 13 13 12 13 13 13 13 13 12 12 12 11 9 9 9 8 7 7 7 8 9 8 9 9 9 8 8 8 8 7 5 6 7 8 8 10 11 11
3 4 1 2 2 3 4 5 7 9 14 14 4 4 6 6 5 5 2 2 3 3 15 17 19 19 19 16 17 18 19 21 19 18 19 20 19 18 18 17 15 11 14 13 14 15 14 14 13 14 16 15 15 16 17 17 17 17 18 17 16 15 13 13 12 11 11 10 11 11 12 11 10 10 9 8 7 6 5 5 7 9 9 9 8 8 8 7 8 7 7 6 7 6 8 10 9
5 2 2 4 5 2 4 8 8 14 10 11 5 10 8 5 13 1 1 7 14 19 21 22 21 15 17 17 19 20 21 19 18 18 18 20 18 18 16 15 12 11 13 14 14 14 16 16 14 15 15 14 16 16 16 17 15 15 16 16 17 18 17 16 15 14 13 12 12 11 11 11 10 8 7 7 8 6 8 9 10 9 9 8 8 8 8 8 8 7 8 9 9 7 5 6 7
3 1 2 5 9 5 1 7 8 7 9 11 8 15 13 9 8 4 18 15 15 18 19 21 20 20 20 17 17 20 21 20 19 20 19 17 16 17 16 15 13 13 14 13 15 16 15 14 14 15 12 14 14 16 17 17 17 18 17 17 16 16 16 18 16 13 12 11 12 11 10 10 10 8 7 6 5 7 9 9 8 8 7 6 8 8 8 8 7 7 8 8 9 8 8 6 5
1 1 1 1 4 3 4 3 11 14 11 11 11 17 12 6 8 11 14 16 18 21 23 23 18 18 16 17 20 22 22 19 18 19 19 17 17 17 17 17 13 14 14 13 15 16 14 13 12 13 12 13 16 16 17 16 17 16 15 18 19 18 17 16 15 14 12 12 12 13 11 11 10 9 7 6 7 6 6 7 7 8 7 8 7 7 8 8 8 7 8 8 8 7 8 9 9
1 0 1 1 0 3 4 1 5 5 17 14 15 13 12 4 6 13 15 17 21 24 19 16 17 18 18 20 21 22 21 19 20 20 19 18 18 18 19 16 15 15 14 14 16 15 15 12 9 9 12 15 18 18 17 18 17 17 18 18 18 18 17 16 14 13 13 12 12 13 12 10 11 9 8 7 6 7 7 7 5 6 8 9 8 8 8 9 8 8 8 7 7 8 9 10 10
4 4 3 1 0 5 7 2 1 6 11 12 14 18 10 5 7 10 17 22 23 21 19 17 17 20 21 21 22 22 22 21 21 20 19 18 19 19 18 16 14 12 13 15 15 15 13 11 11 11 14 16 16 16 17 17 17 18 19 19 17 18 20 16 15 13 13 14 13 12 10 11 10 11 8 7 7 8 8 8 8 8 8 8 9 8 8 8 8 9 9 8 8 8 10 9 9
3 2 3 1 1 3 5 9 1 3 6 11 13 17 16 6 6 14 17 19 20 19 18 20 20 21 22 21 23 23 21 22 21 20 19 19 19 19 18 15 13 15 15 16 15 12 11 11 10 11 13 13 15 17 17 18 19 19 18 15 18 19 20 17 15 13 12 12 13 12 12 11 10 9 8 8 9 7 7 8 8 8 8 8 9 9 8 8 9 9 9 7 7 9 10 10 9
Wind_Direction
283 248 232 233 230 248 223 81 261 216 201 245 260 252 286 15 32 28 324 276 261 71 40 338 28 84 353 37 239 288 306 267 223 262 282 186 197 16 90 62 20 146 137 118 132 150 170 185 173 176 179 170 182 181 183 183 185 183 186 189 197 184 189 201 185 186 193 184 178 184 187 188 178 191 190 190 177 180 201 193 190 199 201 185 177 173 148 155 158 144 141 140 136 123 117 125 106
278 256 226 223 235 233 225 200 272 268 233 271 257 278 347 356 95 57 33 53 23 61 346 23 19 28 59 296 267 331 264 223 246 252 78 120 114 81 73 48 17 14 133 113 130 154 170 183 180 180 178 176 184 186 185 186 187 183 187 193 192 189 194 204 191 192 189 183 182 181 189 196 184 193 188 191 182 186 186 185 201 189 193 197 173 164 161 160 154 164 142 149 141 139 124 122 115
292 298 242 201 240 249 305 209 243 231 251 257 267 127 65 353 340 124 69 71 104 112 346 97 298 133 302 165 269 360 306 346 12 1 82 65 82 23 71 38 13 353 16 122 131 152 172 179 185 183 176 184 186 190 184 189 188 184 190 190 190 192 199 199 201 198 199 185 193 195 188 194 178 201 198 185 193 191 187 176 201 189 204 212 168 174 167 167 162 149 146 159 148 137 130 125 128
279 267 264 163 238 184 241 206 257 269 277 289 289 119 140 185 165 98 99 108 96 53 7 60 350 199 190 313 329 310 244 349 28 7 355 39 39 21 27 65 13 316 327 88 133 149 168 171 193 184 183 182 193 191 188 192 188 190 188 189 192 190 195 203 199 205 196 184 188 189 198 189 186 196 196 190 199 193 180 191 197 200 197 207 180 182 171 172 169 177 159 176 152 145 134 130 132
262 264 255 249 276 215 210 218 240 255 256 265 284 269 11 39 59 4 22 18 84 81 62 113 296 57 281 246 319 322 358 354 64 29 30 47 34 20 51 25 343 291 304 131 157 148 171 171 187 185 182 190 196 195 196 198 193 196 188 191 198 189 193 201 199 199 193 203 181 191 188 191 192 192 187 192 193 196 188 194 196 200 204 195 204 204 172 184 162 169 167 171 143 144 136 133 133
248 254 195 271 221 40 327 270 239 232 248 261 280 68 61 37 36 5 2 51 124 119 118 77 89 351 326 290 132 260 344 318 37 49 9 22 16 20 10 330 322 299 270 113 224 144 182 160 173 190 180 194 196 201 201 202 198 197 193 192 202 194 203 204 206 191 197 204 199 187 182 194 191 193 197 193 200 191 196 199 201 196 210 195 196 213 169 182 172 178 175 174 156 154 145 136 140
234 225 159 206 276 249 268 253 259 274 272 284 298 38 56 49 26 9 16 3 68 90 317 100 20 35 230 8 15 43 45 29 37 35 33 16 12 25 21 334 322 313 326 214 220 220 172 151 168 183 179 188 198 201 201 205 202 201 199 198 203 198 202 207 214 194 197 199 201 201 198 188 188 193 192 198 195 191 197 198 198 199 203 205 202 216 191 176 181 172 174 182 164 160 154 149 143
257 284 158 207 235 183 226 256 264 268 257 195 80 68 62 66 41 19 19 358 7 340 96 46 100 88 103 6 342 53 34 26 33 24 14 13 11 1 8 356 333 328 341 359 342 50 130 155 163 176 180 190 195 201 200 202 204 202 202 205 210 203 206 200 209 214 198 199 200 196 206 193 189 201 198 196 192 194 197 198 201 200 208 198 205 214 197 193 191 168 186 185 185 168 168 157 151
192 224 19 318 255 225 236 241 256 240 254 293 64 86 87 58 49 14 25 357 344 353 21 102 98 48 24 339 53 41 34 9 4 20 10 10 355 7 343 345 344 319 337 38 98 108 122 152 164 171 185 190 199 201 201 202 202 201 202 208 213 206 212 211 208 216 206 201 202 197 208 201 190 203 199 198 194 199 203 197 201 205 205 198 203 210 197 200 185 176 189 198 190 174 169 158 161
210 220 220 243 257 253 241 230 236 238 327 66 63 41 36 51 39 25 10 359 344 344 45 350 42 59 9 302 71 27 20 7 359 0 8 1 356 351 1 342 339 351 331 27 345 120 124 149 164 178 184 187 200 204 205 205 206 203 201 206 211 209 211 215 219 204 216 208 202 209 206 203 195 199 196 196 196 198 206 199 211 202 205 211 194 201 214 187 174 174 190 202 198 189 164 168 164
241 169 247 272 239 246 245 250 286 28 69 62 51 33 25 0 44 21 14 336 344 355 52 340 32 357 338 18 72 50 22 16 9 356 347 354 1 351 349 345 351 9 344 348 357 70 119 141 161 187 187 195 198 202 206 206 209 208 204 207 211 212 211 214 220 208 212 213 210 209 208 205 197 199 200 200 195 199 201 200 207 205 203 208 194 196 204 206 180 183 186 200 197 211 182 175 169
260 217 144 238 250 252 260 5 310 18 75 57 58 25 8 13 36 27 1 342 5 25 31 16 350 336 294 343 73 21 13 13 1 352 336 339 13 355 346 356 5 11 357 349 12 40 120 116 152 200 201 196 199 204 207 204 204 204 206 207 212 215 213 215 220 222 211 215 216 216 213 209 207 207 204 203 196 198 200 202 213 199 203 202 205 192 199 201 196 191 193 198 199 204 187 172 167
275 310 262 260 261 262 349 314 351 338 63 51 17 19 343 30 41 28 6 354 31 30 24 10 350 343 25 330 34 24 23 4 355 347 341 339 30 334 13 2 17 28 356 2 346 349 129 141 151 217 227 214 209 213 209 208 206 203 203 207 208 211 212 215 219 231 215 214 213 212 221 216 218 210 211 209 206 198 200 203 205 206 205 200 205 200 194 198 200 197 193 196 199 205 196 175 161
312 337 341 292 309 307 275 278 335 7 72 34 37 12 2 18 43 34 10 41 32 57 49 22 12 337 40 338 2 358 9 3 352 348 335 350 350 16 11 12 26 48 21 10 343 349 343 119 142 168 201 205 240 227 233 219 212 216 215 217 217 212 211 208 219 220 223 224 221 208 210 207 202 212 208 208 210 201 203 203 205 204 208 206 201 209 194 196 198 198 197 198 205 200 201 138 172
308 335 318 268 284 271 9 67 333 44 78 70 322 31 17 52 27 57 33 47 55 30 68 48 348 49 353 22 354 360 355 360 355 349 357 3 7 19 13 346 1 91 44 26 9 7 339 323 167 163 180 177 215 210 219 225 221 216 220 223 226 221 222 216 217 226 218 224 232 220 220 218 194 198 204 210 203 204 198 206 200 206 206 208 201 204 208 199 195 198 201 202 203 208 173 156 146
309 343 302 273 270 274 39 333 9 299 73 353 20 6 43 71 26 60 67 45 86 53 47 45 39 55 44 48 17 6 9 1 356 359 2 14 19 24 22 21 20 15 15 20 10 7 326 332 327 232 173 182 187 207 198 198 212 218 222 221 231 227 221 230 223 231 238 223 237 237 213 205 190 199 212 214 211 202 193 194 200 203 210 208 205 201 208 206 205 202 202 204 204 206 190 182 168
188 231 270 237 258 348 13 360 357 18 325 349 356 19 38 41 11 62 68 73 68 52 68 59 63 55 59 43 26 18 19 10 8 12 17 22 21 24 23 23 15 16 13 14 19 14 0 354 341 321 307 210 190 201 206 198 192 199 212 220 230 229 223 223 227 225 235 241 236 244 211 176 194 198 218 203 221 232 195 175 196 205 211 206 208 202 206 205 206 198 194 209 210 196 217 166 184
324 248 230 264 10 65 31 34 29 328 315 350 333 46 65 41 342 67 87 73 83 71 60 75 69 63 55 41 33 30 26 21 18 23 26 31 26 27 31 25 17 15 14 10 14 12 6 5 2 343 325 315 251 209 209 214 201 187 190 206 208 228 232 229 228 227 228 224 223 202 206 186 182 194 211 219 212 233 194 179 191 202 210 206 205 207 207 203 200 194 200 201 202 204 93 81 88
239 275 271 35 346 106 16 46 45 357 355 315 317 78 75 58 312 323 91 57 67 72 67 48 62 55 48 45 31 37 29 30 27 31 31 32 31 36 32 24 24 18 18 13 11 10 9 4 358 2 347 332 338 329 297 206 213 156 201 196 206 211 217 222 229 225 227 222 221 182 191 194 187 195 201 207 199 228 223 193 195 197 209 214 189 201 203 200 202 200 198 206 201 156 122 101 121
225 318 279 88 355 111 50 65 52 5 336 306 329 91 80 36 8 295 107 96 69 61 53 50 51 45 43 35 37 37 37 35 35 33 36 34 33 32 32 27 28 24 16 16 9 11 10 8 3 356 360 352 341 336 340 333 288 201 181 199 204 191 201 206 218 227 223 228 225 212 186 193 193 200 211 200 196 207 230 205 195 193 204 231 204 186 201 204 198 198 198 202 204 135 144 146 131
53 242 343 40 13 305 71 82 50 350 323 299 297 113 84 58 37 349 137 105 81 87 66 62 56 54 47 47 41 38 42 41 37 37 37 35 34 34 33 34 27 19 12 10 16 14 8 10 4 4 359 357 353 343 341 332 332 326 271 219 200 212 198 197 200 217 225 223 227 222 207 197 195 199 209 201 193 193 208 195 197 191 194 217 218 179 190 196 195 188 190 196 179 147 147 159 148
307 66 75 14 11 343 84 84 42 336 294 312 41 230 112 106 48 32 23 89 89 81 82 67 64 64 58 48 43 42 44 43 38 40 38 34 30 27 30 33 28 22 11 19 16 12 8 9 7 2 2 357 354 353 335 323 333 319 317 300 259 207 207 211 203 200 216 217 223 223 218 207 204 208 208 197 191 189 196 184 197 194 191 210 201 190 176 177 183 186 179 175 167 150 154 160 155
243 101 96 333 46 311 77 84 30 297 15 46 102 81 78 77 84 61 68 85 103 88 98 83 84 71 74 57 49 47 43 41 41 36 38 34 31 25 24 24 20 14 12 15 11 12 6 7 8 2 5 357 355 350 351 334 304 301 305 310 308 290 232 195 211 221 207 211 211 218 221 211 213 212 209 191 186 187 195 183 191 196 200 206 206 193 183 178 180 188 176 174 162 154 164 164 154
283 90 349 51 319 50 55 86 199 354 104 119 110 134 123 132 94 103 94 107 106 107 99 122 104 89 66 65 58 52 45 40 43 41 36 37 34 31 22 16 23 13 14 14 5 6 8 4 3 7 5 360 352 352 350 350 345 333 323 319 314 298 290 246 218 217 244 224 208 212 220 221 221 215 212 203 184 189 194 189 181 194 200 207 211 202 193 179 178 181 177 174 174 163 167 163 157
267 113 345 96 233 100 114 141 137 98 101 101 111 119 85 105 113 111 95 110 130 133 139 128 117 90 73 67 59 52 48 46 41 38 41 37 33 33 24 20 11 15 17 12 2 359 9 4 355 8 0 4 351 350 348 346 348 343 341 333 319 315 308 293 263 210 208 258 298 244 215 225 222 212 210 208 192 190 192 187 183 191 195 201 201 208 202 195 189 183 177 175 180 165 171 159 166
1 52 270 107 51 94 136 155 121 139 131 131 133 113 114 113 118 90 111 110 119 136 133 126 107 95 88 75 66 52 54 48 44 38 35 37 30 27 27 17 6 15 12 5 5 355 356 10 355 5 3 355 354 345 350 339 348 344 343 336 329 322 313 306 300 284 234 209 221 251 288 269 237 211 212 209 204 192 190 191 187 188 193 195 197 201 203 200 194 190 189 178 178 168 177 166 167
313 52 276 80 123 128 213 176 146 112 43 245 208 156 154 167 234 130 132 133 144 139 134 131 118 112 99 87 69 73 57 51 41 42 38 31 34 28 20 16 11 3 5 0 6 353 347 358 3 347 8 351 351 353 341 342 341 341 334 333 327 324 322 319 315 305 295 255 208 214 214 238 273 282 249 229 240 215 190 190 190 186 193 195 196 198 198 202 197 194 193 187 175 167 174 166 164
294 359 301 148 251 152 174 170 136 153 137 313 291 165 110 307 193 93 149 155 172 152 135 140 135 113 108 95 89 76 71 54 47 43 34 32 25 20 22 12 6 3 354 355 359 350 340 353 2 343 2 351 347 342 346 331 341 334 332 330 328 329 328 323 316 313 307 299 291 260 216 218 223 232 267 279 230 214 234 200 189 186 193 195 197 194 192 197 198 195 192 186 162 160 158 159 162
189 235 229 237 220 254 211 66 135 255 101 224 181 185 218 207 179 150 139 181 174 168 155 155 138 123 112 108 104 87 67 62 57 34 46 33 21 28 21 11 9 359 348 351 348 346 344 337 3 340 354 345 346 332 342 327 325 324 331 326 330 331 329 323 317 315 306 301 299 294 286 268 222 210 225 245 285 242 214 231 206 191 187 192 195 195 188 190 188 178 180 167 153 153 156 162 164
279 219 221 276 198 240 177 191 356 192 128 158 148 315 191 179 140 150 166 181 179 174 176 162 144 134 122 125 105 95 77 70 47 57 31 35 26 16 16 14 358 2 343 341 339 340 334 336 339 337 343 342 334 322 321 324 319 313 318 317 323 325 320 317 314 309 307 308 304 296 292 291 281 241 225 213 222 246 242 227 238 203 190 185 188 188 188 185 184 177 173 166 167 167 173 171 172
265 156 166 216 356 358 161 2 40 2 186 165 220 251 247 178 171 156 184 194 188 183 164 161 151 146 141 117 104 100 98 70 59 42 36 34 31 14 13 5 358 349 341 343 341 336 327 327 335 323 328 327 315 314 308 306 308 307 309 305 308 314 317 305 292 293 301 302 303 304 305 295 279 272 253 231 209 211 216 216 222 235 199 182 182 186 188 188 183 182 170 170 171 173 175 173 177
9 19 348 357 17 294 9 184 112 359 133 295 218 248 258 181 175 176 177 193 201 182 167 161 165 144 128 115 108 97 87 73 58 47 38 32 27 13 4 0 356 341 346 337 326 324 329 328 329 319 314 312 307 295 304 296 299 299 297 297 292 302 303 303 296 286 290 294 295 298 298 296 294 285 272 262 256 235 228 226 209 206 211 191 187 184 187 190 186 181 180 173 173 179 174 180 177
18 50 303 329 344 301 310 182 179 139 302 248 166 257 292 202 170 174 185 186 199 188 176 181 161 159 133 119 108 106 69 66 44 43 28 35 12 12 2 353 354 346 339 341 338 335 327 327 323 324 314 309 296 293 294 295 286 295 290 288 291 291 290 291 295 306 303 296 289 287 289 293 300 302 291 267 252 262 269 252 237 220 193 200 188 187 191 193 187 182 183 183 180 179 181 182 178
337 359 310 313 346 311 292 306 130 299 359 292 294 280 259 135 166 176 181 192 186 204 188 173 170 145 124 115 111 54 87 59 38 17 23 15 4 4 360 348 348 336 334 332 331 327 321 315 306 299 302 288 278 282 282 286 281 285 292 285 292 299 291 279 289 299 305 302 292 275 275 285 289 293 300 310 290 257 249 261 260 232 217 211 203 189 196 193 192 186 185 185 182 179 184 183 181
306 326 334 319 311 289 296 310 342 16 351 312 300 276 270 152 169 181 185 180 198 198 179 179 173 151 147 119 52 80 46 55 31 4 9 1 352 360 341 339 332 326 334 337 333 326 317 313 308 302 294 289 279 269 279 281 286 293 288 296 298 299 290 287 279 288 294 295 292 312 324 313 306 301 293 280 276 282 263 253 258 259 237 224 215 199 197 196 197 194 187 185 187 188 186 187 184
304 320 297 282 301 315 305 319 332 55 323 304 287 272 295 185 185 181 178 185 192 196 176 164 161 159 132 83 88 42 25 32 30 353 353 346 343 352 341 338 338 331 329 332 326 323 320 316 312 306 298 291 291 286 264 268 277 287 294 304 309 306 302 297 299 292 280 274 280 304 312 318 317 313 313 311 299 273 261 255 251 257 256 238 219 209 200 197 198 196 197 185 187 190 187 182 169
291 282 278 290 305 293 307 306 313 12 338 269 280 291 285 275 187 177 176 178 193 187 179 166 165 150 108 79 86 9 22 12 346 343 346 346 349 348 344 341 334 331 335 329 323 319 320 321 316 309 306 299 297 294 292 278 274 285 288 289 297 296 303 306 295 288 282 263 261 284 302 307 305 305 304 303 292 293 287 268 254 252 253 255 240 220 208 200 198 197 196 191 187 190 193 179 175
259 272 282 311 315 310 312 300 317 287 321 287 284 278 275 278 187 175 166 173 196 184 179 164 153 124 120 118 27 48 5 337 343 333 342 341 348 347 341 333 328 332 329 327 329 326 322 317 311 306 308 306 296 293 291 302 293 263 261 257 249 250 268 280 296 302 299 298 291 266 259 258 266 288 306 311 312 307 292 285 274 259 257 256 258 245 217 207 202 202 192 198 198 192 195 179 171
297 231 325 339 315 307 289 274 346 327 315 285 287 286 282 276 285 163 171 180 178 172 151 140 126 108 103 20 85 360 353 345 341 333 345 345 343 335 333 327 325 328 328 330 322 319 320 318 311 311 307 304 300 296 302 297 302 305 307 303 299 283 235 240 252 269 294 296 291 275 239 239 238 242 259 281 293 291 294 299 288 279 269 264 264 265 240 217 207 204 200 198 194 202 194 185 177
306 358 26 332 316 342 323 302 309 310 299 291 291 289 291 289 265 156 159 173 143 104 102 104 80 92 24 64 19 356 350 341 338 344 347 340 330 325 328 324 318 324 322 318 318 324 325 323 319 312 307 301 296 297 297 295 297 303 305 302 302 296 290 249 246 255 260 276 280 274 243 212 212 223 213 221 240 257 271 272 275 282 275 266 259 257 256 240 215 204 205 205 191 192 194 200 188
339 46 7 330 329 312 283 297 314 307 283 260 276 293 291 265 123 161 167 145 117 129 132 119 127 105 124 355 19 9 358 353 354 349 346 338 331 328 323 316 325 329 324 318 319 328 327 326 319 315 311 305 299 293 288 292 308 320 312 306 303 301 298 301 299 288 266 266 288 296 301 257 230 235 229 228 219 224 240 253 262 260 265 271 265 259 259 248 231 217 206 208 204 199 202 188 197
322 108 360 331 314 312 305 303 321 325 310 63 25 316 296 347 200 169 149 139 151 150 155 131 87 103 62 22 13 4 360 1 353 349 344 339 332 333 334 337 335 326 319 318 322 327 322 313 313 313 313 309 303 302 305 323 334 324 321 314 308 304 299 299 291 283 284 265 260 288 301 306 289 236 245 246 231 231 231 233 243 256 264 265 265 259 253 265 248 232 218 208 212 208 197 191 200
315 296 348 327 311 304 300 304 333 311 302 317 118 262 300 297 315 150 163 152 161 130 141 110 107 53 51 23 355 5 353 354 356 347 342 340 338 338 340 334 327 320 320 330 338 334 326 321 320 316 309 307 307 303 306 319 327 322 316 311 305 300 297 292 291 288 278 276 262 249 260 285 298 301 285 228 238 231 224 228 227 230 242 258 267 271 262 244 244 247 227 213 213 213 197 201 201
289 324 344 316 306 305 298 300 286 260 273 286 296 203 310 318 332 131 147 161 149 141 148 106 62 58 33 6 10 8 355 345 345 349 343 340 343 340 330 327 328 327 329 338 333 329 324 325 322 316 311 305 302 300 302 324 322 325 322 316 306 297 293 295 296 296 293 288 281 277 274 257 267 276 285 289 268 233 232 232 226 225 232 242 251 261 265 269 253 228 236 240 229 219 215 212 206
276 300 319 306 298 292 287 283 279 270 298 288 281 18 346 305 309 350 150 166 144 163 120 75 44 25 14 7 357 3 348 342 346 341 342 345 339 332 330 332 333 331 333 331 328 326 323 319 316 314 310 306 304 304 313 318 327 327 323 315 307 300 295 294 296 294 290 286 278 271 263 255 245 246 263 277 280 277 254 222 221 228 227 225 230 243 256 264 265 247 227 226 224 223 221 220 207
272 300 297 289 291 290 275 254 264 274 333 279 352 12 322 296 310 319 129 53 118 120 83 44 41 12 356 346 338 357 356 356 352 341 333 335 335 335 334 333 331 329 325 326 325 325 322 322 319 318 314 312 313 310 309 309 316 319 313 310 304 301 297 293 289 287 287 286 282 277 273 269 254 247 250 257 269 273 275 257 241 228 224 222 217 225 238 247 250 250 243 236 235 233 226 222 220
273 302 309 309 299 292 296 171 251 302 264 302 12 342 323 303 303 329 34 135 88 38 28 44 20 358 338 355 358 353 347 350 350 341 334 337 341 336 331 328 326 324 323 322 324 322 321 321 322 321 321 318 315 310 307 311 320 320 314 311 306 300 299 296 294 287 285 284 281 278 274 269 254 249 240 243 247 256 267 272 263 253 246 238 221 217 223 229 236 241 245 244 244 238 235 237 231
297 332 330 320 313 326 322 25 314 305 289 315 343 328 328 293 308 103 123 138 98 106 88 340 346 359 349 19 353 350 353 354 347 341 339 342 336 328 323 320 321 318 317 318 319 318 320 323 326 327 331 334 330 321 326 332 321 315 313 308 304 302 300 298 295 293 289 285 283 282 279 273 269 255 243 244 239 243 250 256 258 260 257 250 246 235 222 217 220 225 228 229 235 244 238 235 243
342 343 338 352 330 346 342 356 353 343 306 318 328 323 315 276 314 117 140 114 92 108 153 193 8 358 357 4 2 354 353 346 344 343 343 337 329 324 322 320 322 325 322 323 329 336 336 337 334 326 323 323 323 322 320 310 307 305 309 313 309 304 298 295 292 290 288 284 282 281 278 277 276 270 259 260 261 247 242 240 239 240 243 244 253 254 241 229 224 219 215 216 218 221 224 226 224
348 5 349 2 346 353 313 318 290 298 292 302 315 313 276 276 275 65 109 135 167 167 145 11 4 352 357 2 360 353 349 348 346 343 333 326 325 322 320 324 329 327 332 341 340 336 329 321 319 316 312 311 305 302 298 301 308 311 311 309 306 301 295 290 290 288 287 286 286 282 281 277 271 264 257 243 241 240 239 240 234 232 230 231 236 246 259 262 245 226 221 219 216 215 213 217 222
345 356 16 347 283 350 305 317 326 305 299 309 309 292 333 331 287 34 126 170 182 161 4 359 353 358 2 360 358 353 353 349 343 332 328 326 324 327 326 327 325 330 342 336 334 326 317 311 313 316 315 317 315 316 323 323 318 313 310 305 300 296 294 294 289 283 280 279 277 279 278 279 282 284 279 275 268 266 255 248 247 241 232 224 222 228 238 246 248 255 257 234 222 212 210 210 214
61 331 357 13 295 358 252 279 287 298 308 304 303 285 320 312 331 153 173 107 155 344 355 357 3 11 360 354 350 350 346 341 336 327 326 328 331 331 326 323 324 337 334 331 325 319 315 320 326 327 325 325 332 337 336 332 328 324 318 310 303 295 290 285 282 278 273 274 278 277 278 270 262 258 258 257 254 245 242 242 242 236 233 227 218 221 226 233 239 234 236 244 244 230 215 213 216
310 357 10 279 302 222 273 278 288 292 286 272 299 293 299 312 297 155 32 346 356 359 351 352 348 1 2 353 349 347 342 336 331 326 324 327 326 323 318 319 323 335 331 324 319 324 325 322 321 321 321 339 344 337 330 323 315 312 308 308 309 305 298 289 287 286 290 287 282 276 274 276 273 272 271 267 267 266 259 254 245 233 230 234 225 216 218 220 229 238 234 227 230 233 226 226 220
316 351 357 295 256 191 160 310 309 300 300 290 311 305 313 330 309 44 350 1 348 344 344 343 355 4 351 343 343 341 334 330 326 322 322 323 321 317 320 321 324 330 322 319 326 327 319 316 317 321 338 337 329 327 323 319 317 313 310 306 301 297 296 292 285 282 280 281 281 279 276 275 270 256 247 250 247 253 258 262 269 270 248 225 226 224 216 214 215 226 235 238 233 222 219 224 221
113 236 192 23 15 356 312 337 317 321 307 303 307 309 301 304 303 355 348 351 345 343 350 353 356 347 344 339 336 333 330 328 328 324 323 325 324 323 325 322 328 325 320 322 325 320 312 310 327 327 323 325 330 330 327 323 320 317 315 311 306 300 294 289 286 281 276 275 275 269 263 263 268 270 267 263 261 250 241 238 235 248 254 243 230 214 204 209 206 219 226 233 235 229 227 228 223
206 61 5 34 55 324 347 291 271 273 299 320 306 320 306 23 356 346 347 345 352 348 352 351 349 345 337 333 333 331 330 331 328 326 326 325 325 323 322 326 327 320 320 326 323 316 309 318 320 314 321 330 335 332 324 317 314 311 307 305 303 299 292 287 287 289 288 281 275 273 269 270 267 258 241 240 255 273 279 278 254 232 238 247 244 236 221 207 203 213 222 227 228 219 223 228 231
326 352 323 1 8 192 177 224 227 299 305 301 307 310 303 42 355 359 351 354 344 346 352 348 343 338 334 334 335 332 329 328 327 326 325 325 324 322 323 326 320 315 321 321 319 313 317 317 309 321 334 338 327 320 320 318 314 309 305 301 306 310 299 286 282 280 278 282 281 274 273 272 275 270 252 238 236 233 235 246 258 264 260 249 245 238 229 222 210 210 213 222 229 220 220 223 221
284 297 270 164 167 353 341 301 231 313 316 298 312 293 291 31 33 5 357 343 347 357 346 339 342 338 332 331 331 331 328 328 327 328 326 324 323 322 323 322 320 324 321 320 315 318 319 310 312 323 326 321 324 325 323 315 310 302 298 309 317 311 304 290 277 277 277 280 279 272 264 255 253 263 280 273 256 243 239 237 245 258 267 261 251 244 223 211 212 214 212 211 227 226 227 229 222